Find Starlink 11681

NORAD ID: 63755 Int'l Des: 2025-089 Owner: SPXS Country: US Constellation: starlink operational
LEOCIRCULAR

当前视图

正在加载3D地球...

About Starlink 11681

Starlink 11681 (NORAD 63755) is a starlink constellation satellite (v2 mini d2c) launched Apr 29, 2025 by SPXS of US. It operates in LEO, CIRCULAR orbit with a mass of 960.00 kg.

关于 Starlink 11681

正在加载描述...

即将过境

Passes for default location (London). Set your location on the main map for personalized predictions.

高度历史

Loading altitude history...

两行轨道根数

1 63755U 25089E 26171.31829852 .00151264 00000-0 11597-2 0 9999
2 63755 43.0026 33.8702 0000867 20.4304 339.6598 15.70866645 66272
Epoch: Jun 20, 2026 • Age: 50 hours

当前状态

高度 353.2 km
速度 7.70 km/s
星下点 17.13°N, 21.63°W
发射日期 Apr 29, 2025
运行时间 1.1 years
类型 internet

技术详情

分类 Payload
质量 960.00 kg
干质量 910.00 kg
总质量 960.00 kg
长度 0.30 m
直径 4.10 m
跨度 29.00 m
形状 Box + pan
制造商 SPXS
平台类型 Starlink V2MD
阶段状态 In Orbit
所有者/国家 SPXS/US

Most Searched